Location: Pianadetto
(44.4000°N, 10.1000°E)
Time: 22:40:40
(UTC+00:00)

USA 306 - Pass Details

Date: 26 May 2022
Orbit: 545 x 556 km, 54.0° (Epoch: 20 June)

Event Time Altitude Azimuth Distance (km) Brightness Sun altitude
Exits shadow 00:06:55 62° 86° (E) 626 3.0 -23.5°
Drops below altitude 10° 00:10:33 10° 57° (ENE) 1,844 6.1 -23.4°
Sets 00:12:48 0° 56° (NE) 2,745 7.1 -23.3°
